Flag for U.S.A. Weather past 2 weeks in Gainesville, Florida, U.S.A.

Now
73 °F

Sunny.


Feels Like: 76 °F
Forecast: 63 / 80 °F
Wind: 10 mph from Northeast

Location: Gainesville Regional Airport

Current Time: May 5, 2015 at 8:33:00 PM

Latest Report: May 5, 2015 at 7:53 PM


Visibility: 10 mi

Pressure: 30.13 "Hg

Humidity: 64%

Dew point: 60 °F

Location of GainesvilleLocation

Historic Weather in Gainesville — Graph

°F

Gainesville temperature yesterday

Maximum temperature yesterday: 79 °F (at 4:53 PM)
Minimum temperature yesterday: 53 °F (at 5:53 AM)
Average temperature yesterday: 67 °F

Past Weeks' High & Low Weather Summary

 TemperatureHumidityPressure
High87 °F (Apr 23, 3:53 PM)97% (Apr 21, 4:53 AM)30.27 "Hg (Apr 21, 4:53 AM)
Low47 °F (May 2, 5:53 AM)24% (May 1, 6:53 PM)29.61 "Hg (Apr 29, 4:53 PM)
Average70 °F73%29.93 "Hg
* Reported Apr 20 6:53 PM — May 5 6:53 PM, Gainesville, Weather by CustomWeather, © 2015

Note: Actual official high and low records may vary slightly from our data, if they occured in-between our weather recording intervals... More about our weather records

Advertising

Gainesville weather history for previous 24 hours

 ConditionsComfort  
Time TempWeatherWind HumidityBarometerVisibility
6:53 PM
Tue, May 5
76 °FSunny.12 mph56%30.13 "Hg10 mi
5:53 PM76 °FSunny.16 mph62%30.13 "Hg10 mi
4:53 PM78 °FPassing clouds.13 mph56%30.13 "Hg10 mi
3:53 PM78 °FCloudy.14 mph58%30.14 "Hg10 mi
2:53 PM79 °FMostly cloudy.13 mph58%30.17 "Hg10 mi
1:53 PM75 °FLight rain. Mostly cloudy.9 mph74%30.19 "Hg7 mi
1:01 PM72 °FLight rain. Mostly cloudy.6 mph81%30.21 "Hg7 mi
11:53 AM76 °FLight rain. Cloudy.8 mph67%30.21 "Hg10 mi
10:53 AM74 °FMore clouds than sun.7 mph74%30.22 "Hg10 mi
9:53 AM72 °FMostly cloudy.12 mph73%30.22 "Hg10 mi
8:53 AM69 °FOvercast.10 mph76%30.22 "Hg10 mi
7:53 AM65 °FCloudy.7 mph85%30.20 "Hg10 mi
6:53 AM64 °FOvercast.7 mph87%30.19 "Hg10 mi
5:53 AM63 °FOvercast.6 mph90%30.18 "Hg10 mi
4:53 AM63 °FOvercast.7 mph90%30.18 "Hg10 mi
3:53 AM62 °FPassing clouds.7 mph90%30.18 "Hg10 mi
2:53 AM61 °FClear.6 mph90%30.19 "Hg10 mi
1:53 AM61 °FClear.5 mph87%30.22 "Hg10 mi
12:53 AM60 °FClear.6 mph90%30.23 "Hg10 mi
11:53 PM
Mon, May 4
63 °FClear.7 mph81%30.24 "Hg10 mi
10:53 PM63 °FClear.5 mph81%30.24 "Hg10 mi
9:53 PM66 °FClear.5 mph73%30.23 "Hg10 mi
8:53 PM69 °FSunny.6 mph68%30.22 "Hg10 mi
Weather by CustomWeather, © 2015

See weather overviewHow to use our weather pages